STARLINK-35952

Satellite information

Favourite Embed

Satellite Type and Status

PAYLOADIN ORBIT

Key statistics

Satellite STARLINK-35952 at a glance.

Uptime

28

Days in orbit

Revolutions

≈ 15.4

Per day

Orbit

LEO

Low Earth Orbit

Inclination

43.0

Latest

Satellite identification and parameters

Extended collection of information and parameters for STARLINK-35952.

Object identification

Identified? True

Debris? False

Object name: STARLINK-35952

International designator: 2025-265E

Object number (NORAD): 66520

Object ID (CCSDS): 66520

Country: UNITED STATES OF AMERICA (US)

Current information (Y/N): Y

Orbital parameters

Period: 93.466 minutes

Inclination: 43.0008 deg

SMA: 6822.259 km

Apoapsis: 444.909 km

Periapsis: 443.34 km

RAAN: 29.9287 deg

Eccentricy: 0.00011504

Argument of periapsis: 257.3628 deg

Mean anomaly: 45.3681 deg

Mean motion: 15.40672831 rev/day

Mean motion (dot): 0.0001905 rev/day2

B* drag term: 0.00046257475 1/REarth

Two-line elements (TLE)

Creation date: Dec. 17, 2025, 2:25 a.m.

Reference frame: TEME

Reference center: EARTH

Epoch: Dec. 16, 2025, 10 p.m. UTC

TLE line 0: 0 STARLINK-35952

TLE line 1: 1 66520U 25265E 25350.91670139 .00019050 00000-0 46257-3 0 9992

TLE line 2: 2 66520 43.0008 29.9287 0001150 257.3628 45.3681 15.40672831 5664

Live tracking on map

Real-time ground track for satellite STARLINK-35952.

In-orbit conjunctions

There are no conjunctions computed for STARLINK-35952, at the moment. Check back to stay up to date, as we update our databases every day.

Go to all conjunctions

Associated space launch

A batch of 29 satellites for the Starlink mega-constellation - SpaceX's project for space-based Internet communication system.

STARLINK-35952 was lifted into orbit during the mission ‘Falcon 9 Block 5 | Starlink Group 6-94’, on board a Falcon 9 space rocket.

The launch took place on Nov. 19, 2025, 12:12 a.m. from Space Launch Complex 40.

For more information about the launch, click the button.

Launch to space Falcon 9 Block 5 | Starlink Group 6-94
Falcon 9 Block 5 | Starlink Group 6-94

Agency: SpaceX

Status: Launch Successful

Launch date: Nov. 19, 2025, 12:12 a.m. UTC

Rocket: Falcon 9

Launch pad: Space Launch Complex 40

Location: Cape Canaveral SFS, FL, USA

...

Latest news about this satellite

News about space launch
Live coverage: SpaceX to resume early evening launches after FAA restrictions lifted

The Starlink 6-94 mission is scheduled to liftoff from pad 40 at Cape Canaveral Space Force Station, Florida, at 7:12 p.m. EST (0012 UTC), carrying 29 satellites for SpaceX’s Starlink internet service.

News about space launch
Launch Roundup: Innospace to debut new rocket, SpaceX to launch five Falcon 9 missions

Another busy week of launches has arrived, with SpaceX planning to launch five Falcon 9… The post Launch Roundup: Innospace to debut new rocket, SpaceX to launch five Falcon 9 missions appeared first on NASASpaceFlight.com.


Newsletter sign-up

Weekly statistics, charts and insights to help you stay on top of the space industry.